Weather History for KDRM - March, 2013

Change the Weather History Date:

Sunday, March 24, 2013

  Actual Average (KCIU) Record (KCIU)
Temperature  
Mean Temperature 28 °F -  
Max Temperature 35 °F 38 °F 53 °F (2003)
Min Temperature 21 °F 17 °F -13 °F (1983)
Degree Days  
Heating Degree Days 37    
Moisture  
Dew Point 20 °F    
Average Humidity 71    
Maximum Humidity 92    
Minimum Humidity 50    
Precipitation  
Precipitation 0.00 in - - ()
Sea Level Pressure  
Sea Level Pressure 29.97 in    
Wind  
Wind Speed 2 mph (North)    
Max Wind Speed 10 mph    
Max Gust Speed -    
Visibility 10 miles    
Events      
Averages and records for this station are not official NWS values.
T = Trace of Precipitation, MM = Missing Value Source: NWS Daily Summary

Daily Weather History Graph

Daily Weather History Graph

Search for Another Location

Airport or City:

Trip Planner

Search our weather history database for the weather conditions in past years. The results will help you decide how hot, cold, wet, or windy it might be!

Date:

Astronomy

Mar. 24, 2013 Rise Set
Actual Time 7:29 AM EDT 7:53 PM EDT
Civil Twilight 6:59 AM EDT 8:23 PM EDT
Nautical Twilight 6:24 AM EDT 8:58 PM EDT
Astronomical Twilight 5:48 AM EDT 9:35 PM EDT
Moon 5:13 PM EDT (3/24) 5:47 AM EDT (3/24)
Length of Visible Light 13h 23m
Length of Day
12h 23m
Waxing Gibbous, 91% of the Moon is Illuminated
Mar 24
Waxing Gibbous
Mar 27
Full
Apr 3
Last Quarter
Apr 10
New
Apr 18
First Quarter

Hourly Weather History & Observations

Time (EDT) Temp. Windchill Dew Point Humidity Pressure Visibility Wind Dir Wind Speed Gust Speed Precip Events Conditions
12:17 AM 27.5 °F - 23.4 °F 84% 30.07 in 10.0 mi Calm Calm - N/A   Overcast
12:36 AM 27.3 °F 23.4 °F 23.4 °F 85% 30.07 in 10.0 mi NW 3.5 mph - N/A   Overcast
12:56 AM 27.5 °F - 23.4 °F 84% 30.06 in 10.0 mi Calm Calm - N/A   Overcast
1:17 AM 27.0 °F - 23.2 °F 86% 30.06 in 10.0 mi Calm Calm - N/A   Overcast
1:36 AM 26.6 °F 22.6 °F 23.0 °F 86% 30.06 in 10.0 mi WNW 3.5 mph - N/A   Overcast
1:57 AM 26.2 °F - 23.0 °F 88% 30.05 in 10.0 mi Calm Calm - N/A   Overcast
2:17 AM 26.1 °F - 22.8 °F 88% 30.04 in 10.0 mi Calm Calm - N/A   Overcast
2:36 AM 25.7 °F - 22.5 °F 88% 30.04 in 10.0 mi Calm Calm - N/A   Mostly Cloudy
2:57 AM 23.9 °F 19.5 °F 21.7 °F 91% 30.05 in 10.0 mi WSW 3.5 mph - N/A   Mostly Cloudy
3:36 AM 24.3 °F - 22.3 °F 92% 30.04 in 10.0 mi Calm Calm - N/A   Overcast
3:57 AM 24.1 °F - 21.9 °F 91% 30.04 in 10.0 mi Calm Calm - N/A   Overcast
4:17 AM 24.1 °F 19.7 °F 22.1 °F 92% 30.04 in 10.0 mi North 3.5 mph - N/A   Overcast
4:36 AM 24.8 °F 19.1 °F 21.9 °F 89% 30.03 in 10.0 mi North 4.6 mph - N/A   Overcast
4:57 AM 25.2 °F - 21.6 °F 86% 30.03 in 10.0 mi Calm Calm - N/A   Overcast
5:17 AM 25.5 °F - 21.4 °F 84% 30.03 in 10.0 mi Calm Calm - N/A   Overcast
5:36 AM 25.7 °F 21.5 °F 21.4 °F 84% 30.04 in 10.0 mi North 3.5 mph - N/A   Overcast
5:57 AM 25.7 °F 20.1 °F 21.2 °F 83% 30.05 in 10.0 mi North 4.6 mph - N/A   Overcast
6:16 AM 25.7 °F 21.5 °F 20.8 °F 82% 30.06 in 10.0 mi North 3.5 mph - N/A   Overcast
6:36 AM 25.2 °F - 20.1 °F 81% 30.06 in 10.0 mi Calm Calm - N/A   Overcast
6:57 AM 24.1 °F - 19.4 °F 82% 30.06 in 10.0 mi Calm Calm - N/A   Mostly Cloudy
7:16 AM 23.2 °F - 19.2 °F 85% 30.06 in 10.0 mi Calm Calm - N/A   Scattered Clouds
7:37 AM 22.1 °F 17.4 °F 18.5 °F 86% 30.06 in 10.0 mi North 3.5 mph - N/A   Clear
7:57 AM 21.6 °F 16.8 °F 18.1 °F 87% 30.06 in 10.0 mi North 3.5 mph - N/A   Clear
8:16 AM 22.3 °F 17.6 °F 18.3 °F 85% 30.06 in 10.0 mi North 3.5 mph - N/A   Clear
8:37 AM 23.0 °F 17.0 °F 18.3 °F 82% 30.06 in 10.0 mi North 4.6 mph - N/A   Clear
8:57 AM 23.7 °F 17.8 °F 18.5 °F 80% 30.06 in 10.0 mi North 4.6 mph - N/A   Clear
9:16 AM 23.9 °F 18.0 °F 18.5 °F 80% 30.05 in 10.0 mi NNE 4.6 mph - N/A   Clear
9:37 AM 25.0 °F 18.1 °F 18.5 °F 76% 30.05 in 10.0 mi NNE 5.8 mph - N/A   Clear
9:57 AM 25.5 °F 19.9 °F 18.5 °F 75% 30.04 in 10.0 mi North 4.6 mph - N/A   Clear
10:16 AM 26.1 °F 19.4 °F 18.5 °F 73% 30.03 in 10.0 mi North 5.8 mph - N/A   Clear
10:37 AM 26.6 °F 22.6 °F 18.9 °F 73% 30.03 in 10.0 mi NNW 3.5 mph - N/A   Clear
10:56 AM 27.1 °F 21.8 °F 18.9 °F 71% 30.03 in 10.0 mi North 4.6 mph - N/A   Clear
11:16 AM 27.7 °F 23.8 °F 18.7 °F 69% 30.02 in 10.0 mi NNW 3.5 mph - N/A   Clear
11:37 AM 28.9 °F 23.9 °F 18.7 °F 66% 30.01 in 10.0 mi NNW 4.6 mph - N/A   Clear
11:56 AM 29.5 °F 25.9 °F 18.9 °F 65% 30.00 in 10.0 mi North 3.5 mph - N/A   Clear
12:17 PM 30.6 °F - 18.5 °F 61% 30.01 in 10.0 mi Calm Calm - N/A   Clear
12:37 PM 31.5 °F - 17.6 °F 57% 30.00 in 10.0 mi Calm Calm - N/A   Clear
12:56 PM 32.0 °F 28.7 °F 17.6 °F 55% 29.98 in 10.0 mi North 3.5 mph - N/A   Clear
1:17 PM 32.0 °F 25.6 °F 17.8 °F 56% 29.97 in 10.0 mi North 6.9 mph - N/A   Clear
1:37 PM 32.9 °F 28.5 °F 17.6 °F 53% 29.97 in 10.0 mi NNW 4.6 mph - N/A   Clear
1:56 PM 32.9 °F 29.8 °F 18.0 °F 54% 29.96 in 10.0 mi NNW 3.5 mph - N/A   Clear
2:17 PM 33.4 °F 29.1 °F 18.3 °F 54% 29.95 in 10.0 mi NNW 4.6 mph - N/A   Clear
2:36 PM 33.4 °F 29.1 °F 18.3 °F 54% 29.95 in 10.0 mi North 4.6 mph - N/A   Clear
2:56 PM 34.2 °F 31.2 °F 18.7 °F 53% 29.93 in 10.0 mi NNE 3.5 mph - N/A   Clear
3:17 PM 34.5 °F 30.4 °F 19.2 °F 54% 29.92 in 10.0 mi North 4.6 mph - N/A   Clear
3:36 PM 34.2 °F 30.0 °F 19.6 °F 55% 29.91 in 10.0 mi North 4.6 mph - N/A   Clear
3:57 PM 34.2 °F 31.2 °F 19.8 °F 56% 29.90 in 10.0 mi NNE 3.5 mph - N/A   Clear
4:17 PM 34.0 °F 31.0 °F 19.9 °F 56% 29.90 in 10.0 mi ENE 3.5 mph - N/A   Clear
4:36 PM 34.3 °F 30.2 °F 19.2 °F 54% 29.89 in 10.0 mi ENE 4.6 mph - N/A   Clear
4:57 PM 34.7 °F 30.6 °F 18.7 °F 52% 29.88 in 10.0 mi NE 4.6 mph - N/A   Clear
5:17 PM 34.7 °F 29.6 °F 18.3 °F 51% 29.88 in 10.0 mi NE 5.8 mph - N/A   Clear
5:36 PM 35.1 °F 29.3 °F 18.0 °F 50% 29.87 in 10.0 mi NE 6.9 mph - N/A   Clear
5:57 PM 34.9 °F 30.8 °F 18.1 °F 51% 29.87 in 10.0 mi NE 4.6 mph - N/A   Clear
6:17 PM 34.7 °F - 18.5 °F 52% 29.86 in 10.0 mi Calm Calm - N/A   Clear
6:36 PM 32.7 °F 29.6 °F 20.8 °F 62% 29.85 in 10.0 mi NNW 3.5 mph - N/A   Clear
6:57 PM 31.8 °F - 21.2 °F 65% 29.85 in 10.0 mi Calm Calm - N/A   Clear
7:16 PM 31.5 °F 28.1 °F 21.4 °F 66% 29.85 in 10.0 mi North 3.5 mph - N/A   Clear
7:36 PM 30.7 °F - 21.0 °F 67% 29.85 in 10.0 mi Calm Calm - N/A   Clear
7:57 PM 30.2 °F - 20.3 °F 67% 29.85 in 10.0 mi Calm Calm - N/A   Clear
8:16 PM 29.3 °F - 20.1 °F 69% 29.85 in 10.0 mi Calm Calm - N/A   Clear
8:37 PM 29.3 °F - 19.9 °F 68% 29.85 in 10.0 mi Calm Calm - N/A   Clear
8:56 PM 29.1 °F - 19.8 °F 68% 29.85 in 10.0 mi Calm Calm - N/A   Clear
9:16 PM 29.3 °F 24.3 °F 19.8 °F 68% 29.85 in 10.0 mi NNE 4.6 mph - N/A   Clear
9:37 PM 30.6 °F 27.1 °F 20.1 °F 65% 29.85 in 10.0 mi NNE 3.5 mph - N/A   Clear
9:56 PM 30.9 °F 26.2 °F 20.5 °F 65% 29.85 in 10.0 mi NNE 4.6 mph - N/A   Clear
10:17 PM 31.5 °F 28.1 °F 20.8 °F 65% 29.86 in 10.0 mi NNE 3.5 mph - N/A   Scattered Clouds
10:37 PM 31.1 °F 26.4 °F 21.2 °F 67% 29.87 in 10.0 mi NNE 4.6 mph - N/A   Clear
10:56 PM 31.6 °F 23.1 °F 21.6 °F 66% 29.87 in 10.0 mi NE 10.4 mph - N/A   Mostly Cloudy
11:17 PM 31.6 °F 23.7 °F 22.1 °F 68% 29.87 in 10.0 mi NE 9.2 mph - N/A   Overcast
11:37 PM 31.6 °F 26.0 °F 22.1 °F 68% 29.87 in 10.0 mi NE 5.8 mph - N/A   Overcast
11:56 PM 31.6 °F 25.1 °F 22.1 °F 68% 29.87 in 10.0 mi NE 6.9 mph - N/A   Overcast